Weather History for Cody, WY

Change the Weather History Date:

Thursday, February 14, 2013

  Actual Average Record
Temperature  
Mean Temperature 24 °F -  
Max Temperature 28 °F 38 °F 65 °F (1921)
Min Temperature 19 °F 16 °F -38 °F (1936)
Degree Days  
Heating Degree Days 42    
Moisture  
Dew Point 19 °F    
Average Humidity 87    
Maximum Humidity 100    
Minimum Humidity 69    
Precipitation  
Precipitation 0.00 in - - ()
Sea Level Pressure  
Sea Level Pressure 30.20 in    
Wind  
Wind Speed 6 mph (ENE)    
Max Wind Speed 20 mph    
Max Gust Speed 22 mph    
Visibility 8 miles    
Events      
Averages and records for this station are not official NWS values.
T = Trace of Precipitation, MM = Missing Value Source: NWS Daily Summary

Daily Weather History Graph

Daily Weather History Graph

Search for Another Location

Airport:

Trip Planner

Search our weather history database for the weather conditions in past years. The results will help you decide how hot, cold, wet, or windy it might be!

Date:

Astronomy

Feb. 14, 2013 Rise Set
Actual Time 7:17 AM MST 5:44 PM MST
Civil Twilight 6:47 AM MST 6:13 PM MST
Nautical Twilight 6:13 AM MST 6:48 PM MST
Astronomical Twilight 5:39 AM MST 7:21 PM MST
Moon 9:07 AM MST (2/14) 11:04 PM MST (2/14)
Length of Visible Light 11h 26m
Length of Day
10h 26m
Waxing Crescent, 22% of the Moon is Illuminated
Feb 14
Waxing Crescent
Feb 17
First Quarter
Feb 25
Full
Mar 4
Last Quarter
Mar 11
New

Hourly Weather History & Observations

Time (MST) Temp. Windchill Dew Point Humidity Pressure Visibility Wind Dir Wind Speed Gust Speed Precip Events Conditions
12:15 AM 28.4 °F - 26.6 °F 93% 30.03 in 10.0 mi Calm Calm - N/A   Overcast
12:35 AM 28.4 °F - 26.6 °F 93% 30.03 in 10.0 mi Calm Calm - N/A   Overcast
12:55 AM 28.4 °F 24.6 °F 24.8 °F 86% 30.03 in 10.0 mi South 3.5 mph - N/A   Overcast
1:15 AM 28.4 °F 24.6 °F 24.8 °F 86% 30.03 in 10.0 mi South 3.5 mph - N/A   Mostly Cloudy
1:35 AM 28.4 °F 24.6 °F 24.8 °F 86% 30.03 in 10.0 mi South 3.5 mph - N/A   Overcast
1:55 AM 28.4 °F - 26.6 °F 93% 30.04 in 9.0 mi Calm Calm - N/A   Overcast
2:15 AM 28.4 °F 22.2 °F 26.6 °F 93% 30.06 in 10.0 mi North 5.8 mph - N/A   Mostly Cloudy
3:15 AM 23.0 °F 11.7 °F 19.4 °F 86% 30.12 in 4.0 mi NNW 11.5 mph - N/A   Overcast
3:35 AM 23.0 °F 9.6 °F 19.4 °F 86% 30.12 in 8.0 mi NNW 16.1 mph 20.7 mph N/A   Mostly Cloudy
3:55 AM 21.2 °F 6.0 °F 19.4 °F 93% 30.13 in 9.0 mi North 19.6 mph - N/A   Overcast
4:15 AM 21.2 °F 7.3 °F 19.4 °F 93% 30.14 in 5.0 mi North 16.1 mph 21.9 mph N/A   Overcast
4:35 AM 21.2 °F 7.8 °F 19.4 °F 93% 30.16 in 5.0 mi North 15.0 mph 20.7 mph N/A   Overcast
4:55 AM 21.2 °F 7.3 °F 19.4 °F 93% 30.16 in 5.0 mi North 16.1 mph 21.9 mph N/A   Overcast
5:15 AM 21.2 °F 8.3 °F 19.4 °F 93% 30.17 in 4.0 mi North 13.8 mph - N/A   Overcast
5:35 AM 21.2 °F 6.8 °F 19.4 °F 93% 30.17 in 2.5 mi North 17.3 mph - N/A   Overcast
5:55 AM 19.4 °F 6.0 °F 17.6 °F 93% 30.17 in 4.0 mi North 13.8 mph - N/A   Overcast
6:15 AM 19.4 °F 6.6 °F 19.4 °F 100% 30.19 in 3.0 mi North 12.7 mph 18.4 mph N/A   Overcast
6:35 AM 19.4 °F 6.6 °F 17.6 °F 93% 30.20 in 10.0 mi North 12.7 mph - N/A   Overcast
6:55 AM 19.4 °F 8.6 °F 17.6 °F 93% 30.21 in 10.0 mi North 9.2 mph - N/A   Overcast
7:16 AM 19.4 °F 9.5 °F 17.6 °F 93% 30.22 in 3.0 mi North 8.1 mph - N/A   Overcast
7:35 AM 19.4 °F 10.4 °F 17.6 °F 93% 30.23 in 3.0 mi North 6.9 mph - N/A   Overcast
7:55 AM 19.4 °F 14.3 °F 17.6 °F 93% 30.24 in 8.0 mi North 3.5 mph - N/A   Overcast
8:15 AM 19.4 °F 10.4 °F 17.6 °F 93% 30.25 in 6.0 mi North 6.9 mph - N/A   Overcast
8:35 AM 19.4 °F 12.8 °F 17.6 °F 93% 30.26 in 3.0 mi North 4.6 mph - N/A   Overcast
8:55 AM 19.4 °F 12.8 °F 17.6 °F 93% 30.26 in 3.0 mi NE 4.6 mph - N/A   Overcast
9:15 AM 19.4 °F 10.4 °F 17.6 °F 93% 30.27 in 9.0 mi NNE 6.9 mph - N/A   Overcast
9:35 AM 21.2 °F 14.9 °F 17.6 °F 86% 30.27 in 7.0 mi NNE 4.6 mph - N/A   Overcast
9:55 AM 21.2 °F 14.9 °F 17.6 °F 86% 30.27 in 10.0 mi NNE 4.6 mph - N/A   Overcast
10:15 AM 21.2 °F 13.6 °F 15.8 °F 80% 30.28 in 10.0 mi ENE 5.8 mph - N/A   Overcast
10:35 AM 21.2 °F 13.6 °F 17.6 °F 86% 30.28 in 7.0 mi NE 5.8 mph - N/A   Overcast
10:55 AM 21.2 °F 11.7 °F 17.6 °F 86% 30.27 in 6.0 mi NNE 8.1 mph - N/A   Overcast
11:35 AM 21.2 °F 11.7 °F 17.6 °F 86% 30.28 in 4.0 mi NNE 8.1 mph - N/A   Overcast
11:55 AM 21.2 °F 14.9 °F 19.4 °F 93% 30.28 in 3.0 mi North 4.6 mph - N/A   Overcast
12:15 PM 23.0 °F - 15.8 °F 74% 30.27 in 9.0 mi Calm Calm - N/A   Overcast
12:35 PM 23.0 °F - 17.6 °F 80% 30.26 in 9.0 mi Calm Calm - N/A   Overcast
12:55 PM 23.0 °F 18.4 °F 15.8 °F 74% 30.26 in 10.0 mi NE 3.5 mph - N/A   Overcast
1:55 PM 24.8 °F 16.1 °F 17.6 °F 74% 30.24 in 10.0 mi NNE 8.1 mph - N/A   Overcast
2:15 PM 24.8 °F 19.1 °F 17.6 °F 74% 30.24 in 10.0 mi NE 4.6 mph - N/A   Overcast
2:35 PM 24.8 °F - 17.6 °F 74% 30.24 in 10.0 mi Calm Calm - N/A   Mostly Cloudy
2:55 PM 24.8 °F - 15.8 °F 69% 30.24 in 10.0 mi Calm Calm - N/A   Scattered Clouds
3:15 PM 24.8 °F 19.1 °F 17.6 °F 74% 30.23 in 10.0 mi SSE 4.6 mph - N/A   Mostly Cloudy
3:35 PM 24.8 °F 19.1 °F 17.6 °F 74% 30.23 in 10.0 mi SW 4.6 mph - N/A   Mostly Cloudy
3:55 PM 24.8 °F 20.5 °F 17.6 °F 74% 30.23 in 10.0 mi SSE 3.5 mph - N/A   Mostly Cloudy
4:15 PM 24.8 °F 19.1 °F 15.8 °F 69% 30.23 in 10.0 mi SE 4.6 mph - N/A   Overcast
4:35 PM 24.8 °F 19.1 °F 15.8 °F 69% 30.23 in 10.0 mi SE 4.6 mph - N/A   Overcast
4:55 PM 24.8 °F 19.1 °F 15.8 °F 69% 30.23 in 10.0 mi SE 4.6 mph - N/A   Overcast
5:15 PM 24.8 °F 16.9 °F 17.6 °F 74% 30.24 in 5.0 mi SSE 6.9 mph - N/A   Overcast
5:35 PM 23.0 °F 14.7 °F 19.4 °F 86% 30.24 in 5.0 mi South 6.9 mph - N/A   Overcast
5:55 PM 21.2 °F 12.6 °F 19.4 °F 93% 30.24 in 5.0 mi SSE 6.9 mph - N/A   Overcast
6:15 PM 21.2 °F 12.6 °F 19.4 °F 93% 30.23 in 5.0 mi South 6.9 mph - N/A   Overcast
6:55 PM 21.2 °F 13.6 °F 19.4 °F 93% 30.22 in 8.0 mi South 5.8 mph - N/A   Overcast
7:15 PM 21.2 °F 12.6 °F 19.4 °F 93% 30.22 in 9.0 mi SSE 6.9 mph - N/A   Overcast
7:35 PM 21.2 °F 13.6 °F 19.4 °F 93% 30.21 in 10.0 mi SSE 5.8 mph - N/A   Overcast
8:15 PM 21.2 °F 14.9 °F 19.4 °F 93% 30.21 in 10.0 mi SSE 4.6 mph - N/A   Overcast
8:35 PM 21.2 °F 16.4 °F 19.4 °F 93% 30.21 in 10.0 mi SSE 3.5 mph - N/A   Overcast
8:55 PM 21.2 °F 16.4 °F 19.4 °F 93% 30.21 in 9.0 mi SSE 3.5 mph - N/A   Overcast
9:15 PM 21.2 °F 14.9 °F 19.4 °F 93% 30.21 in 5.0 mi SSE 4.6 mph - N/A   Overcast
9:35 PM 21.2 °F 16.4 °F 19.4 °F 93% 30.21 in 10.0 mi South 3.5 mph - N/A   Overcast
10:15 PM 21.2 °F 16.4 °F 19.4 °F 93% 30.21 in 10.0 mi SE 3.5 mph - N/A   Mostly Cloudy
10:36 PM 21.2 °F 16.4 °F 19.4 °F 93% 30.21 in 10.0 mi SE 3.5 mph - N/A   Overcast
10:55 PM 21.2 °F - 19.4 °F 93% 30.21 in 10.0 mi Calm Calm - N/A   Overcast
11:35 PM 21.2 °F - 19.4 °F 93% 30.22 in - Calm Calm - N/A   Overcast
11:55 PM 19.4 °F - 17.6 °F 93% 30.22 in 10.0 mi Calm Calm - N/A   Overcast